Home > Weather > Søgne > Past weeks

Flag for Norway Past Weather in Søgne, Norway — Yesterday and Last 2 Weeks

Now
63 °F

Mild.


Feels Like: 63 °F
Forecast: 59 / 68 °F
Wind: 3 mph from North

Location: Oksoy Fyr

Current Time: Jul 24, 2016 at 8:55:33 AM

Latest Report: Jul 24, 2016 at 8:00 AM


Visibility: N/A

Pressure: 30.13 "Hg

Humidity: 92%

Dew Point: 60 °F

Location of SøgneLocation

Past Weather in Søgne — Graph

°F

Søgne Temperature Yesterday

Maximum temperature yesterday: 69 °F (at 2:00 PM)
Minimum temperature yesterday: 63 °F (at 12:00 AM)
Average temperature yesterday: 66 °F

High & Low Weather Summary for the Past Weeks

 TemperatureHumidityPressure
High70 °F (Jul 20, 11:00 AM)97% (Jul 15, 2:00 AM)30.15 "Hg (Jul 15, 2:00 AM)
Low54 °F (Jul 17, 4:00 AM)54% (Jul 9, 12:00 PM)29.47 "Hg (Jul 11, 5:00 AM)
Average61 °F85%29.88 "Hg
* Reported Jul 9 7:00 AM — Jul 24 7:00 AM, Søgne, Weather by CustomWeather, © 2016

Note: Actual official high and low records may vary slightly from our data, if they occured in-between our weather recording intervals... More about our weather records

Advertising

Søgne Weather History for the Previous 24 Hours

Scroll right to see more
 ConditionsComfort  
Time TempWeatherWind HumidityBarometerVisibility
7:00 AM
Sun, Jul 24
63 °FMild.2 mph95%30.13 "HgN/A
6:00 AM62 °FCool.3 mph94%30.12 "HgN/A
5:00 AM61 °FCool.3 mph94%30.12 "HgN/A
4:00 AM62 °FCool.3 mph94%30.12 "HgN/A
3:00 AM63 °FMild.1 mph93%30.13 "HgN/A
2:00 AM63 °FMild.1 mph92%30.13 "HgN/A
1:00 AM64 °FMild.1 mph92%30.13 "HgN/A
12:00 AM64 °FMild.1 mph90%30.13 "HgN/A
11:00 PM
Sat, Jul 23
64 °FMild.1 mph89%30.13 "HgN/A
10:00 PM65 °FMild.2 mph86%30.13 "HgN/A
9:00 PM65 °FMild.2 mph81%30.13 "HgN/A
8:00 PM66 °FMild.2 mph76%30.13 "HgN/A
7:00 PM67 °FMild.3 mph80%30.13 "HgN/A
6:00 PM68 °FMild.2 mph78%30.13 "HgN/A
5:00 PM68 °FMild.3 mph78%30.14 "HgN/A
4:00 PM68 °FMild.2 mph74%30.15 "HgN/A
3:00 PM68 °FMild.2 mph78%30.15 "HgN/A
2:00 PM69 °FMild.2 mph77%30.15 "HgN/A
1:00 PM68 °FMild.2 mph80%30.14 "HgN/A
12:00 PM68 °FMild.2 mph78%30.15 "HgN/A
11:00 AM68 °FMild.1 mph78%30.14 "HgN/A
10:00 AM66 °FMild.2 mph86%30.14 "HgN/A
9:00 AM66 °FMild.1 mph85%30.13 "HgN/A
8:00 AM64 °FMild.No wind93%30.12 "HgN/A
Weather by CustomWeather, © 2016

See weather overviewHow to use our weather pages